Regional Weather Roundup
Issued by NWS

Home | Current Version | Previous Version | Text Only | Print | Product List | Glossary On
Versions: 1 2 3 4 5 6 7 8 9 10 11 12 13 14 15 16 17 18 19 20 21 22 23 24 25 26 27 28 29 30 31 32 33 34 35 36 37 38 39 40 41 42 43 44 45 46 47 48 49 50
000
ASUS42 KTBW 291117
RWRFL
FLORIDA REGIONAL WEATHER ROUNDUP
NATIONAL WEATHER SERVICE TAMPA BAY RUSKIN FL
700 AM EDT SUN MAY 29 2016

NOTE: "FAIR" INDICATES FEW OR NO CLOUDS BELOW 12,000 FEET WITH NO
SIGNIFICANT WEATHER AND/OR OBSTRUCTIONS TO VISIBILITY.

FLZ001>010-012>015-112-114-115-291200-
PANHANDLE FLORIDA

CITY           SKY/WX    TMP DP  RH WIND       PRES   REMARKS
PENSACOLA      CLEAR     71  66  84 N7        30.07R
MILTON NAS     CLEAR     69  67  93 N3        30.08
CRESTVIEW      CLEAR     64  62  93 CALM      30.09R
DUKE FIELD     FAIR      65  64  93 W3        30.07R
VALPARAISO     PTCLDY    69  66  89 NW2       30.07R
MARY ESTHER    PTCLDY    68  66  96 N2        30.06R
PANAMA CITY    NOT AVBL
TYNDALL AFB    CLEAR     71  65  83 N6        30.06R
APALACHICOLA   PTCLDY    72  72 100 N6        30.05R

STATION/POSITION SKY/WX   TEMP    WIND        PRES    WAVE   SWELL
                          AIR SEA DIR/SP/G            HT/PER HT/PER
                          (F)     (DEG/KT/KT) (MB)    (FT/S) (FT/S)
30.1N   87.6W              77 80  360/ 10/ 12 1017.5R   2/ 6   2/ 6
29.2N   88.2W              78 79   60/  2/  4 1017.5R
28.8N   86.0W              78 80   10/  6/  6 1017.9R   1/ 4   2/ 4
PANAMA CITY BEAC           73 79  340/  5/  6 1017.5R
TOWER C                    76      10/  9/  9 1018.5R
28.5N   84.5W              78 78   40/  8/ 10 1017.3R   1/ 3

$$
FLZ011-016>038-118-127-128-134-139-239-291200-
NORTH FLORIDA

CITY           SKY/WX    TMP DP  RH WIND       PRES   REMARKS
MARIANNA       CLEAR     70  69  97 CALM      30.06R
TALLAHASSEE    PTCLDY    72  67  84 E5        30.06R
PERRY          PTCLDY    70  67  92 CALM      30.07R
LIVE OAK         N/A     68  68 100 CALM      30.09R
CROSS CITY       N/A     68  65  90 CALM      30.05R
LAKE CITY      FAIR      63  63 100 CALM      30.07R
GAINESVILLE    CLEAR     65  63  93 W3        30.06R
WILLISTON      FAIR      70  68  94 CALM      30.06S
PALATKA        FAIR      63  63 100 CALM      30.06S FOG
MAYPORT NAS    CLEAR     70  66  87 W7        30.04S
JACKSONVILLE   PTCLDY    65  65 100 W7        30.04S
JAX NAS        PTCLDY    70  66  87 NW7       30.06R
JAX CECIL      CLEAR     63  63 100 CALM      30.05F
FERNANDINA BEA FAIR      70  64  83 W7        30.03S
ST AUGUSTINE   CLEAR     68  66  93 NW3       30.06R
PALM COAST     CLEAR     66  66 100 CALM      30.05R

STATION/POSITION SKY/WX   TEMP    WIND        PRES    WAVE   SWELL
                          AIR SEA DIR/SP/G            HT/PER HT/PER
                          (F)     (DEG/KT/KT) (MB)    (FT/S) (FT/S)
SHELL POINT                72      10/  5/  7 1016.3
KEATON BEACH               71      90/  7/  9 1017.5R
CEDAR KEY                  76      80/  9/ 10 1018.0R
FERNANDINA                 69 80  230/  3/  6 1017.0R
30.7N   81.3W                 78                N/A     3/ 8
MAYPORT                    70 78  280/  9/ 11 1017.3R
31.4N   80.9W              71 75  280/ 17/ 23 1015.0R   4/ 9   2/ 9
ST AUGUSTINE               69 78  310/  4/  4 1018.4R

$$
FLZ040-043>046-052-053-057-058-063-144-291200-
INTERIOR CENTRAL FLORIDA

CITY           SKY/WX    TMP DP  RH WIND       PRES   REMARKS
OCALA          CLEAR     66  63  88 N5        30.07R
THE VILLAGES     N/A     70  70 100 CALM      29.97R
LEESBURG       CLEAR     71  68  90 CALM      30.07R
SANFORD        CLEAR     72  68  87 CALM      30.05R
ORLANDO EXEC   CLEAR     74  69  85 CALM      30.05S
ORLANDO INTL   PTCLDY    71  68  90 E3        30.05S
KISSIMMEE      PTCLDY    73  72  94 CALM      30.06
WINTER HAVEN   CLEAR     73  70  90 CALM      30.06R
LAKELAND       CLEAR     72  70  94 CALM      30.06R
BARTOW         FAIR      68 N/A N/A CALM      30.06S

$$
FLZ041-047-054-059-064-141-147-291200-
EAST CENTRAL FLORIDA

CITY           SKY/WX    TMP DP  RH WIND       PRES   REMARKS
ORMOND BEACH   CLEAR     66  66 100 CALM      30.05
DAYTONA BEACH  PTCLDY    69  69 100 CALM      30.05R
DELAND           N/A     68  66  94 CALM      30.07R
NEW SMYRNA BEA CLEAR     70  68  94 W5        30.04
JFK SPACE CTR  PTCLDY    70  68  94 CALM      30.04R
TITUSVILLE     CLEAR     66  64  94 SW5       30.06
CAPE CANAVERAL CLEAR     71  69  94 NW2       30.03S
PATRICK AFB    CLEAR     75  71  88 N5        30.04R
MELBOURNE      CLEAR     72  70  93 NW3       30.04R
VERO BEACH     MOCLDY    74  70  87 CALM      30.05R
FT PIERCE      PTCLDY    71  70  96 CALM      30.05R
STUART         CLEAR     75  73  94 CALM      30.06R

STATION/POSITION SKY/WX   TEMP    WIND        PRES    WAVE   SWELL
                          AIR SEA DIR/SP/G            HT/PER HT/PER
                          (F)     (DEG/KT/KT) (MB)    (FT/S) (FT/S)
28.5N   80.2W              76 79  310/  4/  4 1017.4R
28.9N   78.5W              78 79  200/ 10/ 12 1016.8R
TRIDENT PIER               72 81   30/  2/  2 1017.1R
28.4N   80.5W                 81                N/A     2/ 8
27.5N   80.2W                 80                N/A     2/ 8

$$
FLZ050-056-061-142-242-148-248-149-249-151-251-155-255-
160-260-291200-
WEST CENTRAL FLORIDA

CITY           SKY/WX    TMP DP  RH WIND       PRES   REMARKS
CRYSTAL RIVER  FAIR      68  66  94 CALM      30.06R
INVERNESS      FAIR      68  68 100 CALM      30.06R
BROOKSVILLE    CLEAR     67  66  97 CALM      30.06R
ZEPHYRHILLS    FAIR      60  57  91 CALM      30.07R
CLEARWATER AIR FAIR      73  72  94 CALM      30.04R
ST PETE CLEARW CLEAR     75  72  90 CALM      30.04R
TAMPA INTL     PTCLDY    75  70  84 NE5       30.05R
TAMPA EXEC     CLEAR     70  68  94 CALM      30.06R
PLANT CITY     CLEAR     72  72 100 CALM      30.07S
MACDILL AFB    CLEAR     72  71  99 E6        30.04R
PETER O KNIGHT CLEAR     75  73  94 E5        30.05R
ST PETERSBURG  MOCLDY    78  72  81 SE6       30.02R
SARASOTA       CLEAR     73  69  87 CALM      30.03R
VENICE         NOT AVBL

STATION/POSITION SKY/WX   TEMP    WIND        PRES    WAVE   SWELL
                          AIR SEA DIR/SP/G            HT/PER HT/PER
                          (F)     (DEG/KT/KT) (MB)    (FT/S) (FT/S)
27.3N   84.2W                 81                N/A     1/ 6
CLEARWATER BEACH           77 83  110/  4/  5 1016.8R
MIDDLE TAMPA BAY NOT AVBL
VENICE                     75 80   70/  2/  2 1017.2R

$$
FLZ066-069-070-075>078-162-262-165-265-291200-
SOUTHWEST FLORIDA AND KEYS

CITY           SKY/WX    TMP DP  RH WIND       PRES   REMARKS
PUNTA GORDA    CLEAR     69  68  96 CALM      30.06R
FT MYERS       CLEAR     72  70  93 SE5       30.03S
SOUTHWEST INTL CLEAR     72  69  90 E3        30.04R
NAPLES         PTCLDY    73  72  96 NE5       30.04R
MARCO ISLAND   CLEAR     72  64  78 NE5       30.04R
MARATHON       PTCLDY    79  69  71 CALM      30.03R
KEY WEST NAS   PTCLDY    78  71  79 E5        30.02R
KEY WEST INTL  PTCLDY    80  72  76 SE5       30.03R

STATION/POSITION SKY/WX   TEMP    WIND        PRES    WAVE   SWELL
                          AIR SEA DIR/SP/G            HT/PER HT/PER
                          (F)     (DEG/KT/KT) (MB)    (FT/S) (FT/S)
NAPLES                        83              1016.6R
26.0N   85.6W              79 81  120/  2/  4 1017.2R   1/ 5   2/ 5
DRY TORTUGAS               80     110/  8/  9 1016.7R
SAND KEY                   80     130/  6/  7 1017.0R
LONG KEY                   81 85  170/  3/  4 1017.2R

$$
FLZ067-068-071>074-168-172>174-291200-
SOUTHEAST FLORIDA

CITY           SKY/WX    TMP DP  RH WIND       PRES   REMARKS
W PALM BEACH   PTCLDY    76  71  85 N3        30.05R
BOCA RATON     CLEAR     73  72  94 CALM      30.04
FT LAUDER-EXEC CLEAR     73  70  90 CALM      30.04R
FT LAUDERDALE  PTCLDY    73  71  93 N5        30.03R
POMPANO BEACH  PTCLDY    73  71  93 CALM      30.04R
PEMBROKE PINES CLEAR     73  71  93 CALM      30.05R
OPA LOCKA      CLEAR     75  72  90 CALM      30.04R
MIAMI          PTCLDY    76  72  87 CALM      30.04R
WEST KENDALL   CLEAR     71  69  93 CALM      30.03S
HOMESTEAD      MOCLDY    75  71  88 N3        30.03R

STATION/POSITION SKY/WX   TEMP    WIND        PRES    WAVE   SWELL
                          AIR SEA DIR/SP/G            HT/PER HT/PER
                          (F)     (DEG/KT/KT) (MB)    (FT/S) (FT/S)
PORT EVERGLADES            76     330/  5/  6 1017.0R
VIRGINIA KEY               79 81     CALM     1017.0R
LAKE WORTH                 76 82  290/  5/  7 1016.9R
FOWEY ROCKS                81 82  130/  3/  4 1017.6R
SETTLEMENT POINT           79     100/  2/  2 1018.2R

$$




USA.gov is the U.S. government's official web portal to all federal, state and local government web resources and services.